Weather History for Rockwall, TX

Change the Weather History Date:

Thursday, August 14, 2014

  Actual Average (KDFW) Record (KDFW)
Temperature  
Mean Temperature 79 °F 86 °F  
Max Temperature 90 °F 97 °F 106 °F (1911)
Min Temperature 68 °F 76 °F 62 °F (1967)
Degree Days  
Heating Degree Days 0 0  
Month to date heating degree days 0  
Since 1 June heating degree days 0  
Since 1 July heating degree days 0  
Cooling Degree Days 14 21  
Month to date cooling degree days 294  
Year to date cooling degree days 1838  
Since 1 June cooling degree days 1416  
Growing Degree Days 29 (Base 50)    
Moisture  
Dew Point 63 °F    
Average Humidity 58    
Maximum Humidity 80    
Minimum Humidity 40    
Precipitation  
Precipitation 0.00 in 0.05 in 2.63 in (1971)
Month to date precipitation 0.76  
Year to date precipitation 22.96  
Sea Level Pressure  
Sea Level Pressure 30.02 in    
Wind  
Wind Speed 6 mph (SE)    
Max Wind Speed 10 mph    
Max Gust Speed 16 mph    
Visibility 10 miles    
Events      
T = Trace of Precipitation, MM = Missing Value Source: NWS Daily Summary

Daily Weather History Graph

Daily Weather History Graph

Search for Another Location

Airport:

Trip Planner

Search our weather history database for the weather conditions in past years. The results will help you decide how hot, cold, wet, or windy it might be!

Date:

Astronomy

Aug. 14, 2014 Rise Set
Actual Time 6:48 AM CDT 8:11 PM CDT
Civil Twilight 6:22 AM CDT 8:38 PM CDT
Nautical Twilight 5:50 AM CDT 9:09 PM CDT
Astronomical Twilight 5:18 AM CDT 9:41 PM CDT
Moon 10:54 PM CDT (8/14) 11:08 AM CDT (8/14)
Length of Visible Light 14h 15m
Length of Day
13h 23m
Waning Gibbous, 79% of the Moon is Illuminated
Aug 14
Waning Gibbous
Aug 17
Last Quarter
Aug 25
New
Sep 2
First Quarter
Sep 8
Full

Hourly Weather History & Observations

Time (CDT) Temp. Heat Index Dew Point Humidity Pressure Visibility Wind Dir Wind Speed Gust Speed Precip Events Conditions
12:15 AM 74.7 °F - 62.1 °F 65% 30.04 in 10.0 mi East 5.8 mph - N/A   Clear
12:35 AM 74.3 °F - 62.1 °F 65% 30.04 in 10.0 mi East 5.8 mph - N/A   Clear
12:55 AM 74.1 °F - 62.1 °F 66% 30.04 in 10.0 mi ESE 6.9 mph - N/A   Clear
1:15 AM 73.2 °F - 62.2 °F 68% 30.04 in 10.0 mi ESE 9.2 mph - N/A   Clear
1:35 AM 72.5 °F - 62.2 °F 70% 30.04 in 10.0 mi ESE 6.9 mph - N/A   Clear
1:55 AM 72.3 °F - 62.4 °F 71% 30.04 in 10.0 mi ESE 6.9 mph - N/A   Clear
2:15 AM 72.0 °F - 62.1 °F 71% 30.03 in 10.0 mi ESE 6.9 mph - N/A   Clear
2:35 AM 72.0 °F - 61.9 °F 70% 30.03 in 10.0 mi ESE 8.1 mph - N/A   Clear
2:55 AM 72.0 °F - 61.7 °F 70% 30.03 in 10.0 mi ESE 6.9 mph - N/A   Clear
3:15 AM 71.6 °F - 61.3 °F 70% 30.03 in 10.0 mi ESE 6.9 mph - N/A   Clear
3:35 AM 70.7 °F - 61.2 °F 72% 30.03 in 10.0 mi ESE 5.8 mph - N/A   Clear
3:55 AM 70.7 °F - 61.2 °F 72% 30.03 in 10.0 mi ESE 3.5 mph - N/A   Clear
4:15 AM 70.3 °F - 61.2 °F 73% 30.03 in 10.0 mi ESE 5.8 mph - N/A   Clear
4:35 AM 70.0 °F - 61.2 °F 73% 30.04 in 10.0 mi SE 5.8 mph - N/A   Clear
5:15 AM 69.1 °F - 61.7 °F 77% 30.04 in 10.0 mi SE 6.9 mph - N/A   Clear
5:35 AM 69.8 °F - 61.7 °F 75% 30.04 in 10.0 mi SSE 4.6 mph - N/A   Clear
5:55 AM 69.8 °F - 61.7 °F 75% 30.04 in 10.0 mi SE 5.8 mph - N/A   Clear
6:15 AM 69.1 °F - 61.9 °F 78% 30.04 in 10.0 mi SSE 5.8 mph - N/A   Clear
6:35 AM 68.9 °F - 62.1 °F 79% 30.04 in 10.0 mi SE 4.6 mph - N/A   Clear
6:55 AM 68.5 °F - 62.2 °F 80% 30.04 in 10.0 mi SE 4.6 mph - N/A   Clear
7:15 AM 68.9 °F - 62.6 °F 80% 30.05 in 10.0 mi SE 3.5 mph - N/A   Clear
7:35 AM 69.8 °F - 63.1 °F 79% 30.07 in 10.0 mi Calm Calm - N/A   Clear
7:55 AM 71.2 °F - 63.9 °F 77% 30.07 in 10.0 mi Calm Calm - N/A   Clear
8:15 AM 73.4 °F - 63.9 °F 72% 30.07 in 10.0 mi South 4.6 mph - N/A   Clear
8:35 AM 75.0 °F - 64.0 °F 69% 30.08 in 10.0 mi South 8.1 mph - N/A   Clear
8:55 AM 76.8 °F - 64.0 °F 65% 30.08 in 10.0 mi South 10.4 mph - N/A   Clear
9:15 AM 78.3 °F - 64.4 °F 62% 30.08 in 10.0 mi South 10.4 mph 16.1 mph N/A   Clear
9:35 AM 79.0 °F - 63.9 °F 60% 30.09 in 10.0 mi SSW 10.4 mph 16.1 mph N/A   Clear
9:55 AM 80.2 °F 82.0 °F 64.8 °F 59% 30.09 in 10.0 mi South 5.8 mph 16.1 mph N/A   Clear
10:15 AM 81.3 °F 82.7 °F 63.7 °F 55% 30.09 in 10.0 mi SSW 10.4 mph - N/A   Clear
10:35 AM 82.2 °F 83.7 °F 63.9 °F 54% 30.09 in 10.0 mi SSW 6.9 mph - N/A   Clear
10:55 AM 82.9 °F 84.2 °F 63.5 °F 52% 30.09 in 10.0 mi SSW 5.8 mph - N/A   Clear
11:15 AM 83.7 °F 84.9 °F 63.9 °F 51% 30.09 in 10.0 mi SW 4.6 mph - N/A   Clear
11:35 AM 83.7 °F 84.9 °F 63.7 °F 51% 30.08 in 10.0 mi South 3.5 mph - N/A   Clear
12:15 PM 85.8 °F 86.8 °F 63.7 °F 47% 30.07 in 10.0 mi Calm Calm - N/A   Clear
12:35 PM 86.0 °F 87.1 °F 63.5 °F 47% 30.06 in 10.0 mi Calm Calm - N/A   Clear
12:55 PM 86.4 °F 87.0 °F 62.8 °F 45% 30.05 in 10.0 mi South 6.9 mph - N/A   Clear
1:15 PM 86.9 °F 87.8 °F 63.1 °F 45% 30.05 in 10.0 mi Calm Calm - N/A   Clear
1:35 PM 88.2 °F 89.3 °F 63.5 °F 44% 30.04 in 10.0 mi East 3.5 mph - N/A   Clear
1:55 PM 88.7 °F 89.8 °F 63.5 °F 43% 30.03 in 10.0 mi Calm Calm - N/A   Clear
2:15 PM 88.2 °F 88.7 °F 62.6 °F 42% 30.03 in 10.0 mi Calm Calm - N/A   Clear
2:35 PM 89.2 °F 89.9 °F 62.6 °F 41% 30.02 in 10.0 mi East 5.8 mph - N/A   Clear
2:55 PM 90.0 °F 91.0 °F 63.5 °F 41% 30.02 in 10.0 mi ESE 5.8 mph - N/A   Clear
3:15 PM 89.6 °F 90.1 °F 62.4 °F 40% 30.00 in 10.0 mi Calm Calm - N/A   Clear
3:35 PM 90.5 °F 91.4 °F 62.8 °F 40% 30.00 in 10.0 mi Calm Calm - N/A   Clear
3:55 PM 90.5 °F 91.4 °F 63.1 °F 40% 29.99 in 10.0 mi SE 4.6 mph - N/A   Clear
4:15 PM 90.7 °F 91.7 °F 63.5 °F 40% 29.99 in 10.0 mi East 6.9 mph - N/A   Clear
4:35 PM 90.3 °F 91.5 °F 63.5 °F 41% 29.98 in 10.0 mi East 8.1 mph - N/A   Clear
4:55 PM 90.5 °F 91.8 °F 63.5 °F 41% 29.98 in 10.0 mi East 4.6 mph - N/A   Clear
5:15 PM 90.1 °F 91.2 °F 63.3 °F 41% 29.98 in 10.0 mi ESE 5.8 mph - N/A   Clear
5:35 PM 89.6 °F 90.4 °F 63.1 °F 41% 29.97 in 10.0 mi ESE 9.2 mph - N/A   Clear
5:55 PM 89.6 °F 90.8 °F 64.0 °F 42% 29.97 in 10.0 mi East 6.9 mph - N/A   Clear
6:15 PM 88.5 °F 90.1 °F 64.4 °F 45% 29.97 in 10.0 mi East 6.9 mph - N/A   Clear
6:35 PM 87.6 °F 88.5 °F 63.3 °F 44% 29.97 in 10.0 mi ESE 6.9 mph - N/A   Clear
6:55 PM 87.1 °F 88.3 °F 64.0 °F 46% 29.96 in 10.0 mi ESE 8.1 mph - N/A   Clear
7:15 PM 86.4 °F 87.3 °F 63.5 °F 46% 29.97 in 10.0 mi ESE 8.1 mph - N/A   Clear
7:35 PM 85.3 °F 86.6 °F 63.9 °F 49% 29.96 in 10.0 mi ESE 4.6 mph - N/A   Clear
7:55 PM 83.8 °F 85.1 °F 63.7 °F 51% 29.97 in 10.0 mi ESE 4.6 mph - N/A   Clear
8:15 PM 82.6 °F 83.9 °F 63.7 °F 53% 29.97 in 10.0 mi ESE 4.6 mph - N/A   Clear
8:35 PM 81.7 °F 83.2 °F 63.9 °F 55% 29.97 in 10.0 mi ESE 4.6 mph - N/A   Clear
8:55 PM 81.0 °F 82.5 °F 64.0 °F 56% 29.97 in 10.0 mi SE 4.6 mph - N/A   Clear
9:15 PM 79.9 °F - 64.2 °F 59% 29.98 in 10.0 mi SE 4.6 mph - N/A   Clear
9:35 PM 79.5 °F - 63.9 °F 59% 29.98 in 10.0 mi SE 4.6 mph - N/A   Clear
9:55 PM 79.3 °F - 63.7 °F 59% 29.99 in 10.0 mi SE 4.6 mph - N/A   Clear
10:15 PM 78.8 °F - 63.7 °F 60% 29.99 in 10.0 mi SE 5.8 mph - N/A   Clear
10:35 PM 77.9 °F - 63.7 °F 61% 30.00 in 10.0 mi SE 4.6 mph - N/A   Clear
10:55 PM 77.9 °F - 64.0 °F 62% 30.00 in 10.0 mi SE 4.6 mph - N/A   Clear
11:15 PM 77.4 °F - 64.0 °F 63% 30.00 in 10.0 mi SE 4.6 mph - N/A   Clear
11:35 PM 77.2 °F - 63.9 °F 63% 30.00 in 10.0 mi SE 5.8 mph - N/A   Clear
11:55 PM 77.0 °F - 63.7 °F 63% 30.00 in 10.0 mi SSE 5.8 mph - N/A   Clear